Details From SEQM - Quito - Mariscal Sucre Intl
To SEGU - Guayauqiil - Simon Bolivar Intl
Flight Number -
Tags generated
Created
Modified
Stats Distance 153 nm / 284 km
Max Altitude 14,400 ft / 4,389 m
Waypoints 3
Social Downloads 3
Likes 0
Share VATSIM

Download

Looking for another format? Having issues loading an existing format? Contact us
Advertisement - Login to hide

Notes

Basic altitude profile: - Ascent Rate: 1800ft/min - Ascent Speed: 250kts - Cruise Altitude: 240ft - Cruise Speed: 420kts - Descent Rate: 1800ft/min - Descent Speed: 250kts Options: - Use NATs: no - Use PACOTS: no - Use low airways: no - Use high airways: yes

Route

SEQM ASAPO SEGU

ID Type Via Altitude Latitude Longitude Leg Dist Tot Dist Heading (true) Name
O SEQM APT - 0 ft / 0 m -0.12409˚ -78.35438˚ - 0 nm - Quito - Mariscal Sucre Intl
ASAPO FIX - 14,400 ft / 4,389 m -1.14917˚ -79.23167˚ 81 nm 81 nm 221° / 221° -
O SEGU APT - 0 ft / 0 m -2.15742˚ -79.88356˚ 72 nm 153 nm 213° / 213° Guayauqiil - Simon Bolivar Intl

Altitude Profile

Advertisement - Login to hide

SEQM

Details ICAO SEQM
Name Quito - Mariscal Sucre Intl
Region Equador
Timezone America/Guayaquil (UTC-5.0)
Stats Elevation 7,841 ft / 2,390 m (AMSL)
Location -0.124089° -78.354381°
Runways 1
Magnetic Variation 3.594° W

METAR

SEQM 141000Z 15003KT CAVOK 06/05 Q1025 NOSIG RMK A3027

Decode

TAF

Not found

Departure Runways

ID Width Length Bearing (true) Bearing (mag) Surface Threshold Offset Overrun Length
18 171 ft / 52 m 13,524 ft / 4,122 m 177.61° 181.20° Asphalt 0 ft / 0 m 177 ft / 54 m
36 171 ft / 52 m 13,524 ft / 4,122 m 357.61° 1.20° Asphalt 0 ft / 0 m 184 ft / 56 m

SEGU

Details ICAO SEGU (GYE)
Name Guayauqiil - Simon Bolivar Intl
Region Equador
Timezone America/Guayaquil (UTC-5.0)
Stats Elevation 19 ft / 6 m (AMSL)
Location -2.157419° -79.883559°
Runways 1
Magnetic Variation 2.150° W

METAR

SEGU 141000Z 23008KT 9999 FEW009 BKN026 BKN100 23/20 Q1010 NOSIG RMK A2984

Decode

TAF

Not found

Destination Runways

ID Width Length Bearing (true) Bearing (mag) Surface Threshold Offset Overrun Length
03 151 ft / 46 m 9,184 ft / 2,799 m 30.43° 32.58° Asphalt 338 ft / 103 m 280 ft / 85 m
21 151 ft / 46 m 9,184 ft / 2,799 m 210.43° 212.58° Asphalt 810 ft / 247 m 230 ft / 70 m

Approach Navaids

Runway Type Ident Frequency Range Bearing (true) Bearing (mag) Slope Elevation
21 Localiser ILG 110.30 MHz 18 nm / 33 km 210.13° 212.28° - 17 ft / 5 m (AMSL)
21 Glidescope ILG 110.30 MHz 10 nm / 19 km 210.43° 212.58° 3.00° 17 ft / 5 m (AMSL)
21 DME ILG 110.30 MHz 18 nm / 33 km - - - 19 ft / 6 m (AMSL)

Popular Alternatives